Flag for U.S.A. Weather past 2 weeks in Hollywood, California, U.S.A.

Now
60 °F

Overcast.


Feels Like: 60 °F
Forecast: 57 / 70 °F
Wind: 6 mph from South

Location: Burbank-Glendale-Pasadena Airport

Current Time: May 23, 2015 at 10:45:33 PM

Latest Report: May 23, 2015 at 9:53 PM


Visibility: 10 mi

Pressure: 30.00 "Hg

Humidity: 69%

Dew point: 50 °F

Location of HollywoodLocation

Historic Weather in Hollywood — Graph

°F

Hollywood temperature yesterday

Maximum temperature yesterday: 66 °F (at 1:53 PM)
Minimum temperature yesterday: 57 °F (at 3:53 AM)
Average temperature yesterday: 61 °F

Past Weeks' High & Low Weather Summary

 TemperatureHumidityPressure
High81 °F (May 11, 12:53 PM)89% (May 14, 10:53 PM)30.06 "Hg (May 14, 10:53 PM)
Low52 °F (May 15, 1:53 AM)23% (May 11, 3:53 PM)29.76 "Hg (May 11, 5:53 PM)
Average62 °F62%29.93 "Hg
* Reported May 8 8:53 PM — May 23 8:53 PM, Hollywood, Weather by CustomWeather, © 2015

Note: Actual official high and low records may vary slightly from our data, if they occured in-between our weather recording intervals... More about our weather records

Advertising

Hollywood weather history for previous 24 hours

 ConditionsComfort  
Time TempWeatherWind HumidityBarometerVisibility
8:53 PM
Sat, May 23
61 °FOvercast.8 mph65%30.00 "Hg10 mi
7:53 PM63 °FOvercast.7 mph58%29.99 "Hg10 mi
6:53 PM64 °FOvercast.9 mph58%29.97 "Hg10 mi
5:53 PM65 °FOvercast.9 mph56%29.97 "Hg10 mi
4:53 PM68 °FPartly sunny.12 mph53%29.97 "Hg10 mi
3:53 PM70 °FScattered clouds.12 mph49%29.98 "Hg10 mi
2:53 PM68 °FPartly sunny.7 mph53%30.00 "Hg10 mi
1:53 PM68 °FPartly sunny.10 mph53%30.01 "Hg10 mi
12:53 PM67 °FPartly sunny.7 mph55%30.03 "Hg10 mi
11:53 AM66 °FMostly cloudy.8 mph52%30.04 "Hg10 mi
10:53 AM64 °FPartly sunny.3 mph58%30.04 "Hg10 mi
9:53 AM64 °FPartly sunny.7 mph61%30.04 "Hg10 mi
8:53 AM62 °FPartly sunny.5 mph65%30.06 "Hg10 mi
7:53 AM59 °FScattered clouds.No wind75%30.05 "Hg10 mi
6:53 AM57 °FScattered clouds.No wind81%30.04 "Hg10 mi
5:53 AM56 °FPassing clouds.No wind81%30.02 "Hg10 mi
4:53 AM57 °FClear.No wind78%30.02 "Hg10 mi
3:53 AM58 °FPassing clouds.3 mph78%30.02 "Hg10 mi
2:53 AM59 °FOvercast.3 mph72%30.02 "Hg10 mi
1:53 AM60 °FPassing clouds.3 mph69%30.01 "Hg10 mi
12:53 AM60 °FMostly cloudy.5 mph69%30.02 "Hg10 mi
11:53 PM
Fri, May 22
60 °FOvercast.6 mph69%30.02 "Hg10 mi
10:53 PM61 °FOvercast.5 mph67%30.03 "Hg10 mi
Weather by CustomWeather, © 2015

See weather overviewHow to use our weather pages